Tracking 19709 objects as of 19-Jun-2019
HD Live streaming from Space Station
objects crossing your sky now

FLOCK 2K 37

Track FLOCK 2K 37 now!
10-day predictions
FLOCK 2K 37 is classified as:


NORAD ID: 42867
Int'l Code: 2017-042AU
Perigee: 449.9 km
Apogee: 461.7 km
Inclination: 96.9 °
Period: 93.6 minutes
Semi major axis: 6826 km
RCS: Unknown
Launch date: July 14, 2017
Source: United States (US)
Launch site: TYURATAM MISSILE AND SPACE COMPLEX (TTMTR)
aabbcc
Your satellite tracking list
Your tracking list is empty




NASA's NSSDC Master Catalog

Two Line Element Set (TLE):
1 42867U 17042AU  19169.73152745 +.00002165 +00000-0 +57751-4 0  9994
2 42867 096.9404 052.4686 0008640 214.1686 145.9005 15.39121434107979
Source of the keplerian elements: AFSPC